894  
ASUS42 KTBW 181416  
RWRFL  
FLORIDA REGIONAL WEATHER ROUNDUP  
NATIONAL WEATHER SERVICE TAMPA BAY RUSKIN FL  
1000 AM EDT SAT APR 18 2015  
 
NOTE: "FAIR" INDICATES FEW OR NO CLOUDS BELOW 12,000 FEET WITH NO  
SIGNIFICANT WEATHER AND/OR S TO VISIBILITY
.  
 
 
FLZ001>010-012>015-112-114-115-181500-  
PANHANDLE FLORIDA  
 
CITY SKY/WX TMP DP RH WIND PRES REMARKS
 
PENSACOLA LGT RAIN 68 67 96 CALM 29.97R FOG  
PENSACOLA NAS LGT RAIN 71 70 96 CALM 29.97R  
MILTON NAS CLOUDY 66 65 96 CALM 29.98  
CRESTVIEW FOG 66 66 100 CALM 29.99R VSB 3/4  
DUKE FIELD FOG 66 66 100 CALM 29.97R VSB 1  
VALPARAISO LGT RAIN 71 69 93 CALM 29.97R FOG  
MARY ESTHER LGT RAIN 72 66 79 CALM 29.97R  
TRI COUNTY CLOUDY 67 66 97 CALM 29.98R  
PANAMA CITY FAIR 74 70 87 CALM 29.96R FOG  
TYNDALL AFB PTSUNNY 75 73 94 CALM 29.97R  
APALACHICOLA CLOUDY 80 73 79 SW7 29.97R  
 
STATION/POSITION SKY/WX TEMP WIND PRES WAVE SWELL
 
AIR SEA DIR/SP/G HT/PER HT/PER  
(F) (DEG/KT/KT) (MB) (FT/S) (FT/S)  
30.1N 87.6W 73 73 180/ 6/ 6 1014.1R 2/ 6 2/ 6  
29.2N 88.2W 71 75 60/ 4/ 6 1014.7R 3/ 5 2/ 5  
28.8N 86.0W 77 77 200/ 4/ 6 1015.0R 2/ 4 2/ 4  
PANAMA CITY BEAC 73 74 10/ 2/ 3 1014.1R  
CAPE SAN BLAS NOT AVBL  
TOWER C 74 240/ 4/ 4 1015.1R  
28.5N 84.5W 77 76 210/ 8/ 8 1015.1R 2/ 5 2/ 5  
 

 
FLZ011-016>038-118-127-128-134-139-239-181500-  
NORTH FLORIDA  
 
CITY SKY/WX TMP DP RH WIND PRES REMARKS
 
MARIANNA CLOUDY 69 69 100 CALM 29.97R  
TALLAHASSEE CLOUDY 75 71 87 NW5 29.97R  
PERRY PTSUNNY 78 73 83 SW7 29.98R  
CROSS CITY N/A N/A N/A N/A MISG 29.97S  
LAKE CITY CLOUDY 72 72 100 SW6 29.99R  
GAINESVILLE PTSUNNY 77 71 82 SW8 29.98R  
MAYPORT NAS PTSUNNY 73 69 87 NE5 29.98S  
JACKSONVILLE PTSUNNY 76 70 82 SW5 29.97S  
JAX NAS PTSUNNY 78 69 73 S6 29.98S  
JAX CRAIG PTSUNNY 77 69 76 S6 29.98R  
JAX CECIL PTSUNNY 75 72 88 S7 29.98S  
FERNANDINA BEA PTSUNNY 79 72 78 S6 29.97R  
ST AUGUSTINE MOSUNNY 79 72 79 S6 29.99S  
 
STATION/POSITION SKY/WX TEMP WIND PRES WAVE SWELL
 
AIR SEA DIR/SP/G HT/PER HT/PER  
(F) (DEG/KT/KT) (MB) (FT/S) (FT/S)  
SHELL POINT 75 240/ 3/ 5 N/A  
KEATON BEACH 75 240/ 10/ 11 1015.2R  
CEDAR KEY 77 250/ 6/ 8 1015.8R  
FERNANDINA 71 70 150/ 3/ 4 1014.4F  
30.7N 81.3W 70 N/A 3/ 9 2/11  
MAYPORT 70 69 70/ 2/ 4 1015.1S  
31.4N 80.9W 66 67 140/ 4/ 6 1015.5R 2/10 2/10  
ST AUGUSTINE 71 69 90/ 4/ 4 1015.9R  
 

 
FLZ040-043>046-052-053-057-058-063-144-181500-  
INTERIOR CENTRAL FLORIDA  
 
CITY SKY/WX TMP DP RH WIND PRES REMARKS
 
OCALA MOSUNNY 79 70 73 SW7 29.99R  
THE VILLAGES N/A 77 77 100 S5 29.89S  
LEESBURG PTSUNNY 75 71 87 S3 30.00S  
SANFORD MOSUNNY 78 72 81 W3 29.99R  
ORLANDO EXEC MOSUNNY 79 72 79 W3 29.99R  
ORLANDO INTL MOSUNNY 79 73 82 SW6 29.98F  
KISSIMMEE MOSUNNY 79 73 83 S5 29.99S  
WINTER HAVEN SUNNY 80 70 71 SW7 30.00R  
LAKELAND MOSUNNY 79 72 78 S8 29.99S  
BARTOW MOSUNNY 79 72 78 VRB5 29.99S  
OKEECHOBEE MOSUNNY 79 72 78 SW9 30.00S  
 

 
FLZ041-047-054-059-064-141-147-181500-  
EAST CENTRAL FLORIDA  
 
CITY SKY/WX TMP DP RH WIND PRES REMARKS
 
ORMOND BEACH MOSUNNY 75 72 88 SW7 29.98S  
DAYTONA BEACH PTSUNNY 78 72 81 SW8 29.99S  
DELAND N/A N/A N/A N/A S7 29.99S  
NEW SMYRNA BEA MOSUNNY 75 72 88 CALM 29.99S  
JFK SPACE CTR MOSUNNY 78 72 82 W7 29.97R  
TITUSVILLE MOSUNNY 79 79 100 W8 29.99R  
CAPE CANAVERAL MOSUNNY 80 74 80 W7 29.97R  
PATRICK AFB MOSUNNY 81 73 78 SW8 29.97S  
MELBOURNE MOSUNNY 79 72 79 W8 29.98S  
VERO BEACH SUNNY 82 69 64 W6 29.99R  
FT PIERCE SUNNY 82 70 66 SW7 29.98S  
STUART MOSUNNY 79 72 78 S10 30.00S  
 
STATION/POSITION SKY/WX TEMP WIND PRES WAVE SWELL
 
AIR SEA DIR/SP/G HT/PER HT/PER  
(F) (DEG/KT/KT) (MB) (FT/S) (FT/S)  
28.5N 80.2W 77 78 220/ 8/ 10 1014.9R  
28.9N 78.5W 79 78 210/ 8/ 8 1015.4R  
TRIDENT PIER 78 78 230/ 5/ 7 1015.4R  
28.4N 80.5W 78 N/A 2/ 9  
27.5N 80.2W 78 N/A 3/ 9 2/11  
 

 
FLZ050-056-061-142-242-148-248-149-249-151-251-155-255-  
160-260-181500-  
WEST CENTRAL FLORIDA  
 
CITY SKY/WX TMP DP RH WIND PRES REMARKS
 
CRYSTAL RIVER CLOUDY 79 72 78 CALM 29.98S  
INVERNESS CLOUDY N/A N/A N/A CALM 29.99S HAZE  
BROOKSVILLE CLOUDY 77 72 84 CALM 30.00R  
CLEARWATER MOSUNNY 82 73 74 S12 29.98R  
TAMPA INTL PTSUNNY 80 73 79 S10 29.98S  
TAMPA EXEC MOSUNNY 82 73 74 SW7 29.99S  
PLANT CITY MOSUNNY 81 75 83 SW7 30.01R  
MACDILL AFB MOSUNNY 81 78 90 S9 29.98S  
PETER O KNIGHT SUNNY 82 73 74 SW10 29.98S  
ST PETERSBURG MOSUNNY 81 73 76 S13 29.96S  
SARASOTA MOSUNNY 80 73 79 S12 29.97S  
VENICE FAIR 81 75 83 S8 30.00S  
 
STATION/POSITION SKY/WX TEMP WIND PRES WAVE SWELL
 
AIR SEA DIR/SP/G HT/PER HT/PER  
(F) (DEG/KT/KT) (MB) (FT/S) (FT/S)  
CEDAR KEY 77 250/ 6/ 8 1015.8R  
28.5N 84.5W 77 76 210/ 8/ 8 1015.1R 2/ 5 2/ 5  
27.3N 84.2W 78 N/A 2/ 5  
CLEARWATER BEACH 78 81 190/ 12/ 14 1014.9R  
MIDDLE TAMPA BAY 77 190/ 9/ 10 1015.3R  
VENICE 78 82 190/ 10/ 11 1015.2R  
 

 
FLZ066-069-070-075>078-162-262-165-265-181500-  
SOUTHWEST FLORIDA AND KEYS  
 
CITY SKY/WX TMP DP RH WIND PRES REMARKS
 
PUNTA GORDA MOSUNNY 79 74 84 S7 30.02R  
FT MYERS MOSUNNY 81 73 76 VRB3 30.00R  
SOUTHWEST INTL MOSUNNY 80 72 76 S7 30.01R  
NAPLES MOSUNNY 83 72 69 S9 30.00R  
MARCO ISLAND SUNNY 82 72 69 S8 30.00S  
IMMOKALEE MOSUNNY N/A N/A N/A S9 30.01S  
MARATHON MOSUNNY 84 74 71 SE7 30.01S  
KEY WEST NAS MOSUNNY 82 73 74 SE13 30.01S  
KEY WEST INTL MOSUNNY 82 74 76 SE10 30.02R  
 
STATION/POSITION SKY/WX TEMP WIND PRES WAVE SWELL
 
AIR SEA DIR/SP/G HT/PER HT/PER  
(F) (DEG/KT/KT) (MB) (FT/S) (FT/S)  
VENICE 78 82 190/ 10/ 11 1015.2R  
NAPLES 78 82 110/ 4/ 7 1015.7R  
26.0N 85.6W 80 79 150/ 6/ 8 1014.6R 2/ 7 2/ 7  
DRY TORTUGAS 79 130/ 9/ 9 1015.6R  
NW FL BAY 81 150/ 8/ 10 1016.2  
SAND KEY 79 130/ 11/ 12 1016.2R  
SOMBRERO KEY 80 140/ 10/ 10 1017.0R  
LONG KEY 80 83 160/ 9/ 11 1017.1S  
MOLASSES REEF 79 80 170/ 9/ 10 1016.5R  
 

 
FLZ067-068-071>074-168-172>174-181500-  
SOUTHEAST FLORIDA  
 
CITY SKY/WX TMP DP RH WIND PRES REMARKS
 
W PALM BEACH MOSUNNY 82 71 69 SW9 30.01S  
FT LAUDER-EXEC MOSUNNY 83 73 72 S8 30.01R  
FT LAUDERDALE MOSUNNY 83 71 67 SW6 30.00S  
POMPANO BEACH MOSUNNY 80 32 17 S5 30.01R  
PEMBROKE PINES MOSUNNY 83 71 67 S7 N/A  
OPA LOCKA MOSUNNY 83 70 64 S9 30.01S  
MIAMI MOSUNNY 82 69 64 S7 30.01S  
WEST KENDALL MOSUNNY 84 70 62 VRB7 30.01S  
HOMESTEAD SUNNY 83 71 65 S6 30.01S  
 
STATION/POSITION SKY/WX TEMP WIND PRES WAVE SWELL
 
AIR SEA DIR/SP/G HT/PER HT/PER  
(F) (DEG/KT/KT) (MB) (FT/S) (FT/S)  
PORT EVERGLADES 81 150/ 7/ 9 1016.1R  
VIRGINIA KEY 80 82 190/ 7/ 8 1015.7S  
 
CLICK HERE TO GO TO PREVIOUS BULLETINS.

The Nexlab FL Page Main Text Page